Location: Devore Heights
(34.2372°N, 117.4156°W)
Time: 03:27:23
(UTC+00:00)

S-56A Canister/Altair - Pass Details

Date: 18 September 2024
Orbit: 636 x 2487 km, 38.9° (Epoch: 05 October)

Event Time Altitude Azimuth Distance (km) Brightness Sun altitude
Rises 23:32:27 0° 217° (SW) 2,920 11.3 27.4°
Reaches altitude 10° 23:34:53 10° 206° (SSW) 2,010 10.4 27.0°
Maximum altitude 23:38:47 30° 144° (SE) 1,198 8.6 26.2°
Drops below altitude 10° 23:43:17 10° 83° (E) 2,326 9.5 25.3°
Sets 23:46:19 0° 73° (ENE) 3,473 10.3 24.7°
